EKRAN 6

Satellite information

Favourite Embed

Satellite Type and Status

PAYLOADIN ORBIT

Key statistics

Satellite EKRAN 6 at a glance.

Uptime

16424

Days in orbit

Revolutions

≈ 1.0

Per day

Orbit

OTHER

Other

Inclination

6.7

Latest

Satellite identification and parameters

Extended collection of information and parameters for EKRAN 6.

Object identification

Identified? True

Debris? False

Object name: EKRAN 6

International designator: 1980-104A

Object number (NORAD): 12120

Object ID (CCSDS): 12120

Country: COMMONWEALTH OF INDEPENDENT STATES (CIS)

Current information (Y/N): Y

RCS size: LARGE

Orbital parameters

Period: 1436.794 minutes

Inclination: 6.6945 deg

SMA: 42178.378 km

Apoapsis: 35824.023 km

Periapsis: 35776.463 km

RAAN: 292.3458 deg

Eccentricy: 0.0005638

Argument of periapsis: 47.0836 deg

Mean anomaly: 143.7813 deg

Mean motion: 1.00223127 rev/day

Mean motion (dot): 0.00000005 rev/day2

B* drag term: 0.0 1/REarth

Two-line elements (TLE)

Creation date: Dec. 12, 2025, 7:16 a.m.

Reference frame: TEME

Reference center: EARTH

Epoch: Dec. 11, 2025, 10:23 p.m. UTC

TLE line 0: 0 EKRAN 6

TLE line 1: 1 12120U 80104A 25345.93283052 .00000005 00000-0 00000+0 0 9994

TLE line 2: 2 12120 6.6945 292.3458 0005638 47.0836 143.7813 1.00223127125532

Live tracking on map

Real-time ground track for satellite EKRAN 6.

In-orbit conjunctions

A list of the most updated potential collisions computed for object EKRAN 6.

Target Orbit TCA Probability of collision Miss distance Type
GORIZONT 27 OTHER 2025-11-10 16:47:14 TBA 2528.0 (m) PAYLOAD
BLOCK DM-SL R/B GTO 2025-06-22 18:50:49 TBA 2369.0 (m) ROCKET BODY
ARIANE 44LP DEB GTO 2024-11-04 21:07:44 TBA 2938.0 (m) DEBRIS

Associated space launch

Ekran was a Soviet series of geostationary satellites which were the first in the world to provide Direct-To-Home TV service.

EKRAN 6 was lifted into orbit during the mission ‘Proton-K/DM | Ekran’, on board a Proton-K/DM space rocket.

The launch took place on Dec. 26, 1980, 11:49 a.m. from 200/40.

For more information about the launch, click the button.

Launch to space Proton-K/DM | Ekran
Proton-K/DM | Ekran

Agency: N/A

Status: Launch Successful

Launch date: Dec. 26, 1980, 11:49 a.m. UTC

Rocket: Proton-K/DM

Launch pad: 200/40

Location: Baikonur Cosmodrome, Republic of Kazakhstan

...

Latest news about this satellite

There are no fresh news available about this satellite. Check back as we update our databases every day.


Newsletter sign-up

Weekly statistics, charts and insights to help you stay on top of the space industry.